This demonstration page uses our WeatherBlox Daily Observations layout. Learn more.

Left ArrowRight Arrow

41.12389, -100.76542

Hourly Observations for August 5, 2019

Temp ( °F °C ) Dew Point ( °F °C ) Humidity (%) Winds ( mph kmh ) Pressure ( in mb ) Visibility ( mi km ) Precip ( " mm )
12:17 am 00:17 Partly Cloudy with Nearby Thunderstorms 72 22.2 67 19.4 84 84 SW 7 11 30.00 1016 10 16 0.00 0.00
12:53 am 00:53 Cloudy with Light Rain 73 22.8 67 19.4 81 81 S 9 15 30.02 1017 10 16 0.00 0.00
1:53 am 01:53 Mostly Cloudy 71 21.7 61 16.1 71 71 SSW 23 37 29.88 1012 10 16 0.03 0.76
2:53 am 02:53 Mostly Cloudy 74 23.3 66 18.9 76 76 SW 17 28 29.86 1011 10 16 0.00 0.00
3:53 am 03:53 Mostly Cloudy with Light Rain 76 24.4 65 18.3 69 69 VRB 3 6 29.86 1011 10 16 0.00 0.00
4:50 am 04:50 Cloudy with Nearby Thunderstorms 72 22 64 18 78 78 WNW 14 22 29.91 1013 10 16 0.01 0.25
4:53 am 04:53 Cloudy with Nearby Thunderstorms 72 22.2 65 18.3 79 79 W 15 24 29.94 1014 10 16 0.01 0.25
5:09 am 05:09 Mostly Cloudy with Light Rain 73 22.8 64 17.8 74 74 W 22 35 29.89 1012 10 16 0.00 0.00
5:53 am 05:53 Mostly Cloudy with Light Rain 71 21.7 63 17.2 76 76 W 14 22 29.95 1014 10 16 0.00 0.00
6:53 am 06:53 Cloudy 72 22.2 63 17.2 73 73 WSW 23 37 29.91 1013 10 16 0.00 0.00
7:53 am 07:53 Sunny 72 22.2 62 16.7 71 71 W 13 20 29.92 1013 10 16 0.00 0.00
8:13 am 08:13 Partly Cloudy with Light Rain 72 22.2 63 17.2 73 73 NNW 10 17 29.91 1013 10 16 0.00 0.00
8:53 am 08:53 Sunny 71 21.7 65 18.3 81 81 NW 7 11 29.96 1015 10 16 0.00 0.00
9:53 am 09:53 Sunny 74 23.3 65 18.3 74 74 NNW 8 13 29.98 1015 10 16 0.00 0.00
10:53 am 10:53 Sunny 76 24.4 66 18.9 72 72 NNW 9 15 29.99 1016 10 16 0.00 0.00
11:53 am 11:53 Partly Cloudy 79 26.1 65 18.3 62 62 NW 8 13 29.98 1015 10 16 0.00 0.00
12:53 pm 12:53 Sunny 84 28.9 66 18.9 55 55 NW 3 6 29.95 1014 10 16 0.00 0.00
1:53 pm 13:53 Sunny 86 30 66 18.9 51 51 W 6 9 29.95 1014 10 16 0.00 0.00
2:53 pm 14:53 Sunny 88 31.1 67 19.4 50 50 SW 8 13 29.93 1014 10 16 0.00 0.00
3:53 pm 15:53 Sunny 89 31.7 63 17.2 42 42 SW 8 13 29.92 1013 10 16 0.00 0.00
4:53 pm 16:53 Sunny 90 32.2 63 17.2 41 41 W 6 9 29.91 1013 10 16 0.00 0.00
5:53 pm 17:53 Sunny 90 32.2 66 18.9 45 45 S 5 7 29.90 1013 10 16 0.00 0.00
6:53 pm 18:53 Sunny 86 30 67 19.4 53 53 S 5 7 29.89 1012 10 16 0.00 0.00
7:27 pm 19:27 Partly Cloudy with Nearby Thunderstorms 85 29.4 68 20 57 57 SSW 5 7 29.78 1009 10 16 0.00 0.00
7:50 pm 19:50 Partly Cloudy with Thunderstorms 82 28 72 22 70 70 SW 5 7 29.80 1009 10 16 0.00 0.00
7:53 pm 19:53 Partly Cloudy with Thunderstorms 82 27.8 71 21.7 69 69 SW 6 9 29.91 1013 10 16 0.00 0.00
8:27 pm 20:27 Mostly Cloudy with Nearby Thunderstorms 75 23.9 70 21.1 84 84 W 12 19 29.87 1012 10 16 0.01 0.25
8:53 pm 20:53 Mostly Cloudy with Nearby Thunderstorms 72 22.2 66 18.9 82 82 SW 9 15 29.95 1014 10 16 0.01 0.25
9:13 pm 21:13 Mostly Cloudy 71 21.7 64 17.8 79 79 W 8 13 29.91 1013 10 16 0.00 0.00
9:53 pm 21:53 Mostly Clear 69 20.6 63 17.2 81 81 NNW 6 9 29.97 1015 10 16 0.00 0.00
10:53 pm 22:53 Clear 67 19.4 63 17.2 87 87 NNE 5 7 29.98 1015 10 16 0.00 0.00
11:53 pm 23:53 Clear 67 19.4 62 16.7 84 84 S 3 6 29.98 1015 10 16 0.00 0.00

Powered by AerisWeather